CQ0XPA-11 SANTAREM PT current weather conditions

sailwx.info

Wind from 022 at 6 knots gusting 6

Air temperature 12.8° C
Dewpoint 11.7° C

Last reported at 2020-Jan-24 10:59 UTC.
Time now 2020-Jan-24 12:03 UTC

Location: N 39°13' W 008°25'.
View on Google Maps.

See reports from other nearby stations

  
Tides and Currents Weather Stations Pressure Air Temp Water Temp Dewpoint Dewpoint Depression Visibility Wind Speed Wind Dir Waves Ship Positions
date/time (UTC)wind fromknots sea level pressurealtimeterstation pressurevisibilityair tempwater tempwave heightnotes
2020-Jan-24 10:59 022 6 gusting 6 12.8
2020-Jan-24 10:55 180 2 gusting 9 12.8
2020-Jan-24 10:49 090 4 gusting 6 12.2
2020-Jan-24 10:44 022 3 gusting 6 12.2
2020-Jan-24 10:38 090 3 gusting 6 12.2
2020-Jan-24 10:34 135 4 gusting 6 11.7
2020-Jan-24 10:28 135 4 gusting 8 11.7
2020-Jan-24 10:22 090 4 gusting 7 11.7
2020-Jan-24 10:18 180 6
2020-Jan-24 10:14 022 4 gusting 6 11.1
2020-Jan-24 10:08 168 6 gusting 7 11.1
2020-Jan-24 10:04 135 2 gusting 8 10.6
2020-Jan-24 10:00 101 5 gusting 8 10.6
2020-Jan-24 09:54 157 6 gusting 7 10.6
2020-Jan-24 09:50 022 4 gusting 6 10.6
2020-Jan-24 09:43 090 3 gusting 8 10.6
2020-Jan-24 09:39 180 3 gusting 3 10.6
2020-Jan-24 09:31 067 2 gusting 3 10.6
2020-Jan-24 09:29 270 0 gusting 5 10.0
2020-Jan-24 09:23 180 1 gusting 5 10.0
2020-Jan-24 09:19 135 3 gusting 3 10.6
2020-Jan-24 09:13 022 3 gusting 5 10.6
2020-Jan-24 09:09 045 3 gusting 5 10.6
2020-Jan-24 09:03 022 0 gusting 1 10.0
2020-Jan-24 08:59 033 10.0
2020-Jan-24 08:55 180 2 gusting 3 10.0
2020-Jan-24 08:48 067 10.0
2020-Jan-24 08:44 112 3 gusting 5 9.4
2020-Jan-24 08:38 9.4
2020-Jan-24 08:34 180 1 gusting 4 9.4
2020-Jan-24 08:28 180 3 gusting 6 9.4
2020-Jan-24 08:24 045 4 gusting 5 9.4
2020-Jan-24 08:18 135 2 gusting 5 9.4
2020-Jan-24 08:14 135 5 gusting 6 9.4
2020-Jan-24 08:08 022 2 gusting 5 9.4
2020-Jan-24 08:04 157 1 gusting 4 9.4
2020-Jan-24 08:00 056 3 gusting 5 9.4
2020-Jan-24 07:54 022 2 gusting 4 9.4
2020-Jan-24 07:49 022 1 gusting 5 9.4
2020-Jan-24 07:43 022 0 gusting 4 9.4
2020-Jan-24 07:39 112 9.4
2020-Jan-24 07:33 067 0 gusting 2 9.4
2020-Jan-24 07:29 180 9.4
2020-Jan-24 07:21 090 0 gusting 2 9.4
2020-Jan-24 07:19 135 2 gusting 2 9.4
2020-Jan-24 07:13 135 9.4
2020-Jan-24 07:09 9.4
2020-Jan-24 07:05 078 2 gusting 3 9.4
2020-Jan-24 06:59 090 2
2020-Jan-24 06:55 157 0 gusting 3 9.4
2020-Jan-24 06:48 135 0 gusting 6 9.4
2020-Jan-24 06:44 180 0 gusting 4 9.4
2020-Jan-24 06:36 022 2 gusting 3 9.4
2020-Jan-24 06:34 022 2 gusting 6 9.4
2020-Jan-24 06:28 135 4 gusting 6 9.4
2020-Jan-24 06:24 022 1 gusting 6 9.4
2020-Jan-24 06:18 090 4 gusting 6 9.4
2020-Jan-24 06:14 090 5 gusting 6 9.4
2020-Jan-24 06:08 157 2 gusting 6 9.4
2020-Jan-24 06:04 135 3 gusting 5 9.4
2020-Jan-24 05:45 270 2 gusting 5 9.4
2020-Jan-24 05:43 112 3 gusting 6 9.4
2020-Jan-24 05:39 112 4 gusting 6 9.4
2020-Jan-24 05:33 078 1 gusting 6 9.4
2020-Jan-24 05:29 067 4 gusting 6 9.4
2020-Jan-24 05:23 135 2 gusting 6 9.4
2020-Jan-24 05:19 180 2 gusting 3 9.4
2020-Jan-24 05:13 168 5 gusting 5 9.4
2020-Jan-24 05:09 135 3 gusting 3 9.4
2020-Jan-24 05:05 045 1 gusting 3 8.9
2020-Jan-24 04:59 135 0 gusting 2 8.9
2020-Jan-24 04:55 112 0 gusting 3 8.9
2020-Jan-24 04:48 8.9
2020-Jan-24 04:44 270 0 gusting 5 8.9
2020-Jan-24 04:36 270 1 gusting 2 8.9
2020-Jan-24 04:34 135 0 gusting 2 8.9
2020-Jan-24 04:28 180 0 gusting 3 8.9
2020-Jan-24 04:24 022 0 gusting 4 8.9
2020-Jan-24 04:18 045 0 gusting 3 8.9
2020-Jan-24 04:14 270 1 gusting 3 8.9
2020-Jan-24 04:08 270 2 gusting 6 8.9
2020-Jan-24 04:04 022 2 gusting 5 8.9
2020-Jan-24 04:00 180 5 gusting 5 8.9
2020-Jan-24 03:53 135 2 gusting 5 8.9
2020-Jan-24 03:49 135 2 gusting 5 8.9
2020-Jan-24 03:43 157 5 gusting 6 8.9
2020-Jan-24 03:39 022 3 gusting 6 8.9
2020-Jan-24 03:33 022 1 gusting 4 8.9
2020-Jan-24 03:29 225 0 gusting 6 8.9
2020-Jan-24 03:23 022 1 gusting 6 8.9
2020-Jan-24 03:19 112 5 gusting 5 8.9
2020-Jan-24 03:13 180 1 gusting 4 8.9
2020-Jan-24 03:09 022 2 gusting 5 8.9
2020-Jan-24 03:05 157 2 gusting 6 8.9
2020-Jan-24 02:59 090 3 gusting 4 8.9
2020-Jan-24 02:50 157 3 gusting 5 8.9
2020-Jan-24 02:48 045 2 gusting 4 8.9
2020-Jan-24 02:44 022 1 gusting 5 8.9
2020-Jan-24 02:38 135 3 gusting 5 8.9
2020-Jan-24 02:34 022 1 gusting 6 8.9
2020-Jan-24 02:28 067 1 gusting 5 8.9
2020-Jan-24 02:24 180 3 gusting 4 8.9
2020-Jan-24 02:18 022 2
2020-Jan-24 02:14 135 4 gusting 5 8.9
2020-Jan-24 02:10 180 5 gusting 5 8.3
2020-Jan-24 02:04 022 1 gusting 5 8.3
2020-Jan-24 02:00 022 3 gusting 6 8.3
2020-Jan-24 01:53 225 0 gusting 5 8.3
2020-Jan-24 01:49 022 0 gusting 5 8.9
2020-Jan-24 01:43 180 1 gusting 5 8.9
2020-Jan-24 01:39 022 4 gusting 5 8.9
2020-Jan-24 01:33 112 1 gusting 5 8.9
2020-Jan-24 01:29 101 1 gusting 4 8.9
2020-Jan-24 01:23 112 3 gusting 3 8.9
2020-Jan-24 01:19 157 3 gusting 5 8.9
2020-Jan-24 01:13 146 4 gusting 5 8.9
2020-Jan-24 01:09 112 3 gusting 6 8.9
2020-Jan-24 01:05 180 2 gusting 4 8.9
2020-Jan-24 00:59 045 4 gusting 5 8.9
2020-Jan-24 00:54 022 1 gusting 5 8.9
2020-Jan-24 00:48 146 3 gusting 6 8.9
2020-Jan-24 00:44 022 1 gusting 6 8.9
2020-Jan-24 00:38 135 2 gusting 5 8.9
2020-Jan-24 00:34 157 1 gusting 5 8.9
2020-Jan-24 00:28 135 1 gusting 4 8.9
2020-Jan-24 00:24 135 4 gusting 5 8.9
2020-Jan-24 00:18 022 4 gusting 5 8.9
2020-Jan-24 00:14 146 0 gusting 5 8.9
2020-Jan-24 00:10 180 0 gusting 5 8.9
2020-Jan-24 00:04 135 1 gusting 4 8.9
2020-Jan-24 00:00 045 2 gusting 5 8.9
2020-Jan-23 23:51 045 0 gusting 3 8.3
2020-Jan-23 23:49 180 1 gusting 3 8.3
2020-Jan-23 23:41 270 0 gusting 2 8.3
2020-Jan-23 23:39 270 8.9
2020-Jan-23 23:33 270 8.9
2020-Jan-23 23:29 045 0 gusting 1 8.9
2020-Jan-23 23:23 9.4
2020-Jan-23 23:19 022 0 gusting 1 9.4
2020-Jan-23 23:13 9.4
2020-Jan-23 23:09 180 0 gusting 5 9.4
2020-Jan-23 23:05 022 0 gusting 4 9.4
2020-Jan-23 22:58 270 1 gusting 4 9.4
2020-Jan-23 22:54 135 2 gusting 5 9.4
2020-Jan-23 22:48 157 0 gusting 5 9.4
2020-Jan-23 22:44 112 2 gusting 3 8.9
2020-Jan-23 22:38 135 1 gusting 6 8.9
2020-Jan-23 22:34 112 1 gusting 4 8.9
2020-Jan-23 22:28 157 2 gusting 3 8.9
2020-Jan-23 22:24 135 2 gusting 2 8.3
2020-Jan-23 22:18 180 8.9
2020-Jan-23 22:14 270 8.9
2020-Jan-23 22:10 067 8.9
2020-Jan-23 22:03 067 8.9
2020-Jan-23 21:59 8.9
2020-Jan-23 21:53 8.9
2020-Jan-23 21:47 067 0 gusting 0 8.9
2020-Jan-23 21:43 067 0 gusting 0 8.9
2020-Jan-23 21:39 067 8.9
2020-Jan-23 21:33 067 8.9
2020-Jan-23 21:29 045 0 gusting 1 8.9
2020-Jan-23 21:23 112 0 gusting 0 8.9
2020-Jan-23 21:19 135 8.9
2020-Jan-23 21:15 135 8.9
2020-Jan-23 21:09 090 0 gusting 0 8.9
2020-Jan-23 21:04 135 0 gusting 0 8.9
2020-Jan-23 20:58 022 8.9
2020-Jan-23 20:54 270 0 gusting 1 8.9
2020-Jan-23 20:46 135 0 gusting 1 8.9
2020-Jan-23 20:44 270 0 gusting 1 8.9
2020-Jan-23 20:38 045 9.4
2020-Jan-23 20:34 022 9.4
2020-Jan-23 20:28 022 0 gusting 0 9.4
2020-Jan-23 20:24 270 9.4
2020-Jan-23 20:20 135 9.4
2020-Jan-23 20:14 9.4
2020-Jan-23 20:10 270 9.4
2020-Jan-23 20:03 180 9.4
2020-Jan-23 19:59 112 9.4
2020-Jan-23 19:53 9.4
2020-Jan-23 19:49 9.4
2020-Jan-23 19:43 9.4
2020-Jan-23 19:39 067 9.4
2020-Jan-23 19:33 135 9.4
2020-Jan-23 19:29 135 9.4
2020-Jan-23 19:23 157 0 gusting 1 9.4
2020-Jan-23 19:19 045 0 gusting 2 9.4
2020-Jan-23 19:15 180 1 gusting 1 9.4
2020-Jan-23 19:09 045 9.4
2020-Jan-23 19:04 045 9.4
2020-Jan-23 18:58 067 9.4
2020-Jan-23 18:54 067 9.4
2020-Jan-23 18:48 067 9.4
2020-Jan-23 18:44 9.4
2020-Jan-23 18:38 033 0 gusting 0 9.4
2020-Jan-23 18:34 9.4
2020-Jan-23 18:28 067 0 gusting 0 9.4
2020-Jan-23 18:24 067 0 gusting 0 9.4
2020-Jan-23 18:20 067 0 gusting 0 9.4
2020-Jan-23 18:14 112 9.4
2020-Jan-23 18:10 9.4
2020-Jan-23 18:03 067 9.4
2020-Jan-23 17:59 112 9.4
2020-Jan-23 17:51 112 1 gusting 1 9.4
2020-Jan-23 17:49 112 9.4
2020-Jan-23 17:43 112 1 gusting 2 9.4
2020-Jan-23 17:39 112 0 gusting 1 9.4
2020-Jan-23 17:33 112 1 gusting 2 9.4
2020-Jan-23 17:29 9.4
2020-Jan-23 17:23 112 0 gusting 1 9.4
2020-Jan-23 17:19 112 9.4
2020-Jan-23 17:15 112 1 gusting 1 9.4
2020-Jan-23 17:08 067 0 gusting 1 9.4
2020-Jan-23 17:04 9.4
2020-Jan-23 16:58 067 9.4
2020-Jan-23 16:54 067 9.4
2020-Jan-23 16:48 112 0 gusting 0 9.4
2020-Jan-23 16:44 112 0 gusting 0 9.4
2020-Jan-23 16:38 045 9.4
2020-Jan-23 16:34 045 9.4
2020-Jan-23 16:28 112 9.4
2020-Jan-23 16:24 112 0 gusting 2 9.4
2020-Jan-23 16:20 112 9.4
2020-Jan-23 16:14 112 0 gusting 0 9.4
2020-Jan-23 16:09 112 0 gusting 0 9.4
2020-Jan-23 16:03 9.4
2020-Jan-23 15:59 045 0 gusting 0 9.4
2020-Jan-23 15:47 112 0 gusting 1 9.4
2020-Jan-23 15:39 270 1
2020-Jan-23 15:33 270 9.4
2020-Jan-23 15:29 270 2
2020-Jan-23 15:25 10.0
2020-Jan-23 15:19 270 10.0
2020-Jan-23 15:15 112 10.0
2020-Jan-23 15:08 067 10.0
2020-Jan-23 15:04 10.0
2020-Jan-23 14:58 10.0
2020-Jan-23 14:54 10.0
2020-Jan-23 14:48 10.0
2020-Jan-23 14:44 10.0
2020-Jan-23 14:38 10.0
2020-Jan-23 14:34 10.0
2020-Jan-23 14:28 090 10.6
2020-Jan-23 14:24 067 10.6
2020-Jan-23 14:20 135 0 gusting 0 10.6
2020-Jan-23 14:14 090 10.6
2020-Jan-23 14:09 135 1 gusting 1 11.1
2020-Jan-23 14:03 180 0 gusting 2 11.1
2020-Jan-23 13:57 022 0 gusting 2 11.7
2020-Jan-23 13:51 135 1 gusting 4 12.2
2020-Jan-23 13:49 180 1 gusting 4 12.2
2020-Jan-23 13:43 112 1 gusting 2 12.8
2020-Jan-23 13:39 045 2 gusting 4 12.8
2020-Jan-23 13:31 112 2 gusting 3 12.8
2020-Jan-23 13:29 135 1 gusting 1 12.8
2020-Jan-23 13:25 180 1 gusting 2 12.8
2020-Jan-23 13:19 157 2
2020-Jan-23 13:15 045 2 gusting 4 12.2
2020-Jan-23 13:08 022 1 gusting 2 11.7
2020-Jan-23 13:04 157 1 gusting 3 11.7
2020-Jan-23 12:58 270 11.7
2020-Jan-23 12:54 067 11.7
2020-Jan-23 12:48 135 1 gusting 2 11.7
2020-Jan-23 12:44 180 0 gusting 4 12.2
2020-Jan-23 12:38 180 3 gusting 4 12.2
2020-Jan-23 12:34 180 2 gusting 3 12.8
2020-Jan-23 12:28 180 0 gusting 2 12.2
2020-Jan-23 12:24 022 0
2020-Jan-23 12:20 090 1 gusting 4 12.2
2020-Jan-23 12:13 090 11.7
2020-Jan-23 12:09 135 11.7
2020-Jan-23 12:03 180 2 gusting 4 11.7
2020-Jan-23 11:59 022 1 gusting 2 12.2
2020-Jan-23 11:53 135 1 gusting 2 11.7
2020-Jan-23 11:49 135 0 gusting 2 11.7
2020-Jan-23 11:43 011 2 gusting 3 11.1
2020-Jan-23 11:39 157 2 gusting 3 10.6
2020-Jan-23 11:33 180 0 gusting 1 10.6
2020-Jan-23 11:27 135 1 gusting 2 10.6
2020-Jan-23 11:25 180 1 gusting 2 10.6
2020-Jan-23 11:19 022 10.6
2020-Jan-23 11:14 270 10.6
2020-Jan-23 11:08 135 10.6
2020-Jan-23 11:04 090 1 gusting 1 10.6
2020-Jan-23 10:56 157 1 gusting 3 10.0
2020-Jan-23 10:54 225 1 gusting 2 10.0
2020-Jan-23 10:48 157 1 gusting 3 10.0
2020-Jan-23 10:44 067 10.0
2020-Jan-23 10:38 180 1 gusting 5 10.0
2020-Jan-23 10:34 045 1 gusting 6 10.0
2020-Jan-23 10:30 180 2 gusting 4 10.0
2020-Jan-23 10:24 045 3 gusting 3 10.0
2020-Jan-23 10:20 135 3 gusting 3 10.0
2020-Jan-23 10:13 180 1 gusting 3 10.0
2020-Jan-23 10:09 045 3 gusting 3 10.0
2020-Jan-23 10:03 157 2 gusting 5 9.4
2020-Jan-23 09:59 270 2 gusting 3 9.4
2020-Jan-23 09:53 180 2 gusting 4 9.4
2020-Jan-23 09:49 180 1 gusting 3 9.4
2020-Jan-23 09:43 157 2 gusting 4 9.4
2020-Jan-23 09:39 135 3 gusting 3 9.4
2020-Jan-23 09:33 112 3 gusting 6 8.9
2020-Jan-23 09:29 157 2 gusting 3 8.9
2020-Jan-23 09:23 090 2 gusting 3 8.9
2020-Jan-23 09:16 090 3 gusting 4 8.9
2020-Jan-23 09:14 045 1 gusting 3 8.9
2020-Jan-23 09:08 180 1 gusting 3 8.3
2020-Jan-23 09:04 135 2 gusting 2 8.3
2020-Jan-23 08:56 135 8.3
2020-Jan-23 08:54 067 2 gusting 2 8.3
2020-Jan-23 08:48 157 0 gusting 2 8.3
2020-Jan-23 08:44 180 7.8
2020-Jan-23 08:38 123 2 gusting 2 7.8
2020-Jan-23 08:34 022 7.8
2020-Jan-23 08:30 112 7.8
2020-Jan-23 08:24 112 7.8
2020-Jan-23 08:20 112 7.8
2020-Jan-23 08:13 112 7.8
2020-Jan-23 08:09 135 7.8
2020-Jan-23 08:03 135 7.8
2020-Jan-23 07:59 135 7.8
2020-Jan-23 07:53 135 0 gusting 0 7.8
2020-Jan-23 07:47 112 8.3
2020-Jan-23 07:43 022 8.3
2020-Jan-23 07:35 090 8.3
2020-Jan-23 07:33 135 8.3
2020-Jan-23 07:23 180 8.3
2020-Jan-23 07:18 180 8.3
2020-Jan-23 07:12 180 8.3
2020-Jan-23 07:08 045 8.3
2020-Jan-23 07:04 045 8.3
2020-Jan-23 06:56 180 8.3
2020-Jan-23 06:54 135 8.3
2020-Jan-23 06:48 112 8.3
2020-Jan-23 06:44 135 1 gusting 1 8.3
2020-Jan-23 06:38 180 8.3
2020-Jan-23 06:34 135 0 gusting 1 8.3
2020-Jan-23 06:30 045 0 gusting 1 7.8
2020-Jan-23 06:24 135 0 gusting 2 7.8
2020-Jan-23 06:19 135 0 gusting 2 7.8
2020-Jan-23 06:13 180 0
2020-Jan-23 06:09 022 7.8
2020-Jan-23 06:03 135 0 gusting 2 7.8
2020-Jan-23 05:59 112 1 gusting 3 7.8
2020-Jan-23 05:53 090 7.8
2020-Jan-23 05:49 090 0 gusting 2 7.8
2020-Jan-23 05:43 180 1 gusting 3 7.8
2020-Jan-23 05:39 180 0 gusting 2 7.8
2020-Jan-23 05:33 180 0 gusting 2 8.3
2020-Jan-23 05:29 090 8.3
2020-Jan-23 05:25 180 1 gusting 1 8.3
2020-Jan-23 05:18 135 0 gusting 0 8.3
2020-Jan-23 05:14 270 0 gusting 0 8.3
2020-Jan-23 05:08 135 8.3
2020-Jan-23 05:04 135 0 gusting 1 8.3
2020-Jan-23 04:58 135 8.3
2020-Jan-23 04:54 157 0 gusting 3 8.3
2020-Jan-23 04:48 157 1 gusting 2 8.3
2020-Jan-23 04:44 090 1 gusting 1 8.3
2020-Jan-23 04:38 045 8.3
2020-Jan-23 04:34 135 0 gusting 2 8.3
2020-Jan-23 04:30 045 8.3
2020-Jan-23 04:24 180 8.3
2020-Jan-23 04:19 135 8.3
2020-Jan-23 04:13 090 0 gusting 0 8.3
2020-Jan-23 04:09 045 8.3
2020-Jan-23 04:01 090 0 gusting 2 8.3
2020-Jan-23 03:59 067 8.3
2020-Jan-23 03:53 045 8.3
2020-Jan-23 03:49 157 0 gusting 1 8.3
2020-Jan-23 03:43 180 8.3
2020-Jan-23 03:39 135 8.3
2020-Jan-23 03:35 067 0 gusting 1 8.3
2020-Jan-23 03:29 090 0 gusting 0 8.3
2020-Jan-23 03:25 135 8.3
2020-Jan-23 03:18 135 8.3
2020-Jan-23 03:14 135 8.3
2020-Jan-23 03:08 135 8.3
2020-Jan-23 03:04 135 0 gusting 0 8.3
2020-Jan-23 02:58 135 8.3
2020-Jan-23 02:54 067 8.3
2020-Jan-23 02:48 067 8.3
2020-Jan-23 02:44 067 8.3
2020-Jan-23 02:38 067 8.3
2020-Jan-23 02:34 067 8.3
2020-Jan-23 02:30 270 8.3
2020-Jan-23 02:23 270 8.3
2020-Jan-23 02:19 270 0 gusting 0 8.3
2020-Jan-23 02:13 067 0 gusting 0 8.3
2020-Jan-23 02:09 8.3
2020-Jan-23 02:01 067 8.3
2020-Jan-23 01:59 067 8.3
2020-Jan-23 01:51 135 8.3
2020-Jan-23 01:49 135 8.3
2020-Jan-23 01:43 180 8.3
2020-Jan-23 01:39 180 8.3
2020-Jan-23 01:33 180 8.3
2020-Jan-23 01:29 270 8.3
2020-Jan-23 01:24 270 8.3
2020-Jan-23 01:18 067 8.3
2020-Jan-23 01:14 067 0 gusting 1 8.3
2020-Jan-23 01:08 270 8.3
2020-Jan-23 01:04 270 8.3
2020-Jan-23 00:58 270 8.3
2020-Jan-23 00:54 067 8.3
2020-Jan-23 00:48 067 0 gusting 1 8.3
2020-Jan-23 00:44 270 0 gusting 1 8.3
2020-Jan-23 00:40 067 0 gusting 2 8.3
2020-Jan-23 00:34 067 0 gusting 1 8.3
2020-Jan-23 00:30 067 0 gusting 1 8.3
2020-Jan-23 00:23 067 0 gusting 1 8.3
2020-Jan-23 00:19 067 0 gusting 1 8.3
2020-Jan-23 00:13 067 1 gusting 1 8.3
2020-Jan-23 00:09 067 8.3
2020-Jan-23 00:03 067 0 gusting 1 8.3
2020-Jan-22 23:59 8.3
2020-Jan-22 23:53 067 1 gusting 1 8.3
2020-Jan-22 23:49 270 8.3
2020-Jan-22 23:43 067 3 gusting 3 8.3
2020-Jan-22 23:39 045 0 gusting 1 8.3
2020-Jan-22 23:35 067 0 gusting 1 8.3
2020-Jan-22 23:28 045 0 gusting 1 8.3
2020-Jan-22 23:24 067 0 gusting 2 8.3
2020-Jan-22 23:18 067 0 gusting 1 8.3
2020-Jan-22 23:14 090 0 gusting 0 8.3
2020-Jan-22 23:06 112 0 gusting 0 8.3
2020-Jan-22 23:04 112 8.3
2020-Jan-22 22:56 067 8.3
2020-Jan-22 22:52 270 8.3
2020-Jan-22 22:48 112 8.3
2020-Jan-22 22:44 045 8.3
2020-Jan-22 22:40 045 8.3
2020-Jan-22 22:34 045 8.3
2020-Jan-22 22:29 180 8.3
2020-Jan-22 22:23 8.3
2020-Jan-22 22:19 8.3
2020-Jan-22 22:13 8.3
2020-Jan-22 22:09 8.3
2020-Jan-22 22:03 8.3
2020-Jan-22 21:59 8.3
2020-Jan-22 21:53 8.3
2020-Jan-22 21:49 067 0 gusting 1 8.3
2020-Jan-22 21:45 067 0 gusting 2 8.3
2020-Jan-22 21:39 067 0 gusting 0 8.9
2020-Jan-22 21:35 270 8.3
2020-Jan-22 21:28 8.9
2020-Jan-22 21:24 067 0 gusting 0 8.9
2020-Jan-22 21:18 067 0 gusting 0 8.9
2020-Jan-22 21:14 067 8.9
2020-Jan-22 21:08 045 0 gusting 0 8.9
2020-Jan-22 21:04 045 0 gusting 0 8.9
2020-Jan-22 20:58 045 8.9
2020-Jan-22 20:54 045 8.9
2020-Jan-22 20:48 045 8.9
2020-Jan-22 20:44 045 8.9
2020-Jan-22 20:40 270 8.9
2020-Jan-22 20:34 270 8.9
2020-Jan-22 20:29 270 8.9
2020-Jan-22 20:23 045 8.3
2020-Jan-22 20:19 090 8.3
2020-Jan-22 20:13 045 8.3
2020-Jan-22 20:09 180 8.3
2020-Jan-22 20:03 045 8.3
2020-Jan-22 19:59 180 0 gusting 1 8.3
2020-Jan-22 19:53 135 8.3
2020-Jan-22 19:49 135 8.3
2020-Jan-22 19:45 180 0 gusting 1 8.3
2020-Jan-22 19:39 090 8.3
2020-Jan-22 19:34 135 8.3
2020-Jan-22 19:28 045 0 gusting 1 8.3
2020-Jan-22 19:24 045 8.3
2020-Jan-22 19:18 180 8.3
2020-Jan-22 19:14 180 8.3
2020-Jan-22 19:08 067 8.9
2020-Jan-22 19:04 067 8.9
2020-Jan-22 18:58 067 8.9
2020-Jan-22 18:54 067 8.9
2020-Jan-22 18:48 067 8.9
2020-Jan-22 18:42 180 8.9
2020-Jan-22 18:40 270 0 gusting 1 8.9
2020-Jan-22 18:33 157 0 gusting 1 8.9
2020-Jan-22 18:29 135 0 gusting 1 8.9
2020-Jan-22 18:23 067 8.9
2020-Jan-22 18:19 135 8.9
2020-Jan-22 18:09 022 0 gusting 0 8.9
2020-Jan-22 18:03 067 8.9
2020-Jan-22 17:59 067 8.9
2020-Jan-22 17:53 067 0 gusting 1 8.9
2020-Jan-22 17:49 067 8.9
2020-Jan-22 17:45 270 8.9
2020-Jan-22 17:38 022 0 gusting 2 8.9
2020-Jan-22 17:28 270 8.9
2020-Jan-22 17:24 270 8.9
2020-Jan-22 17:12 090 9.4
2020-Jan-22 17:08 022 0 gusting 1 9.4
2020-Jan-22 17:04 270 9.4
2020-Jan-22 16:56 270 9.4
2020-Jan-22 16:54 135 0 gusting 1 9.4
2020-Jan-22 16:50 270 0 gusting 0 9.4
2020-Jan-22 16:44 045 9.4
2020-Jan-22 16:39 270 0 gusting 2 9.4
2020-Jan-22 16:33 9.4
2020-Jan-22 16:29 270 9.4
2020-Jan-22 16:23 022 9.4
2020-Jan-22 16:19 067 0 gusting 2 10.0
2020-Jan-22 16:13 270
2020-Jan-22 16:07 090 10.0
2020-Jan-22 16:01 135 10.0
2020-Jan-22 15:59 135 0 gusting 2 10.0
2020-Jan-22 15:55 135 0 gusting 1 10.0
2020-Jan-22 15:49 045 0 gusting 0 10.0
2020-Jan-22 15:45 270 10.0
2020-Jan-22 15:38 180 0 gusting 1 10.0
2020-Jan-22 15:34 270 10.0
2020-Jan-22 15:28 067 10.0
2020-Jan-22 15:24 270 1 gusting 1 10.0
2020-Jan-22 15:18 045 0 gusting 2 10.0
2020-Jan-22 15:14 270 10.0
2020-Jan-22 15:08 022 0 gusting 2 10.0
2020-Jan-22 15:04 270 10.0
2020-Jan-22 14:58 270 10.0
2020-Jan-22 14:54 067 1 gusting 2 10.0
2020-Jan-22 14:46 067 0 gusting 2 10.0
2020-Jan-22 14:44 067 0 gusting 2 10.0
2020-Jan-22 14:39 157 0 gusting 6 10.0
2020-Jan-22 14:33 270 0 gusting 2 10.0
2020-Jan-22 14:29 270 10.0
2020-Jan-22 14:23 022 0 gusting 2 10.0
2020-Jan-22 14:19 090 1 gusting 6 10.0
2020-Jan-22 14:13 067 0 gusting 1 10.0
2020-Jan-22 14:09 270 1 gusting 4 10.0
2020-Jan-22 14:03 10.0
2020-Jan-22 13:59 270 0 gusting 3 10.0
2020-Jan-22 13:55 270 10.0
2020-Jan-22 13:49 022 10.0
2020-Jan-22 13:44 067 0 gusting 1 10.0
2020-Jan-22 13:38 315 1 gusting 3 10.0
2020-Jan-22 13:34 270 0 gusting 5 10.0
2020-Jan-22 13:28 157 2 gusting 2 10.6
2020-Jan-22 13:24 045 1 gusting 5 10.6
2020-Jan-22 13:18 180 2 gusting 3 10.6
2020-Jan-22 13:14 022 0 gusting 3 11.1
2020-Jan-22 13:08 11.1
2020-Jan-22 13:04 135 0 gusting 2 11.1
2020-Jan-22 13:00 067 1 gusting 4 11.1
2020-Jan-22 12:54 022 11.1
2020-Jan-22 12:50 067 0 gusting 3 11.1
2020-Jan-22 12:43 067 0 gusting 2 11.7
2020-Jan-22 12:39 067 0 gusting 4 11.7
2020-Jan-22 12:33 033 0 gusting 4 11.7
2020-Jan-22 12:29 157 3 gusting 3 11.7
2020-Jan-22 12:21 157 2 gusting 3 11.7
2020-Jan-22 12:19 056 0 gusting 3 11.7
2020-Jan-22 12:13 022 3 gusting 3 11.7
2020-Jan-22 12:09 067 1 gusting 2 12.2
2020-Jan-22 12:03 135 0 gusting 5 12.2